Location: Tamazert
(32.6352°N, 5.2072°W)
Time: 00:42:36
(UTC+00:00)

Vanguard 1 Rocket - Pass Details

Date: 13 October 2022
Orbit: 650 x 4225 km, 34.3° (Epoch: 05 December)

Event Time Altitude Azimuth Distance (km) Brightness Sun altitude
Rises 23:45:40 0° 289° (WNW) 7,135 12.1 -64.9°
Reaches altitude 10° 23:51:37 10° 283° (WNW) 5,517 11.4 -65.2°
Enters shadow 23:53:45 14° 280° (W) 4,923 11.1 -65.2°
